Regional Weather Roundup
Issued by NWS

Home | Current Version | Previous Version | Graphics & Text | Print | Product List | Glossary On
Versions: 1 2 3 4 5 6 7 8 9 10 11 12 13 14 15 16 17 18 19 20 21 22 23 24 25 26 27 28 29 30 31 32 33 34 35 36 37 38 39 40 41 42 43 44 45 46 47 48 49 50
036
ASUS43 KBIS 180102
RWRND

NORTH DAKOTA REGIONAL WEATHER ROUNDUP
NATIONAL WEATHER SERVICE BISMARCK ND
700 PM CST WED JAN 17 2018

NOTE: "FAIR" INDICATES FEW OR NO CLOUDS BELOW 12,000 FEET WITH NO
SIGNIFICANT WEATHER AND/OR OBSTRUCTIONS TO VISIBILITY.


NDZ001>003-009>011-017-180200-
NORTHWEST NORTH DAKOTA

CITY           SKY/WX    TMP DP  RH WIND       PRES   REMARKS
WILLISTON      MOCLDY    27  19  72 SW13      29.99F WCI  16
MINOT          CLOUDY    35  22  58 SW16      29.91F
MINOT AFB      CLOUDY    32  22  67 W18       29.89F
$$

NDZ018>021-031>035-040>046-180200-
SOUTHWEST NORTH DAKOTA

CITY           SKY/WX    TMP DP  RH WIND       PRES   REMARKS
BISMARCK       CLEAR     29  23  78 W6        30.05F
DICKINSON      MOCLDY    29  20  69 W15       30.00F WCI  18
GARRISON         N/A     26  21  81 W12       29.97F WCI  16
HETTINGER ARPT MOCLDY    25  18  74 SW5       30.08F WCI  19
$$

NDZ004>008-012>016-024-026-027-054-180200-
NORTHEAST NORTH DAKOTA

CITY           SKY/WX    TMP DP  RH WIND       PRES   REMARKS
GRAND FORKS    FAIR      32  25  75 W15       29.88F
GRND FRKS AFB  FAIR      35  24  65 W13       29.88S
DEVILS LAKE    FAIR      30  22  72 SW20      29.90F WCI  17
$$

NDZ022-023-025-028>030-036>039-047>053-180200-
SOUTHEAST NORTH DAKOTA

CITY           SKY/WX    TMP DP  RH WIND       PRES   REMARKS
FARGO          FAIR      31  22  69 SW15      29.98S
JAMESTOWN      CLEAR     32  23  69 W12       29.97F
$$





USA.gov is the U.S. government's official web portal to all federal, state and local government web resources and services.